This demonstration page uses our WeatherBlox Daily Observations layout. Learn more.

Left ArrowRight Arrow

34.16533, -84.80231

Hourly Observations for April 15, 2022

Temp ( °F °C ) Dew Point ( °F °C ) Humidity (%) Winds ( mph kmh ) Pressure ( in mb ) Visibility ( mi km ) Precip ( " mm )
12:15 am 00:15 Clear 52 11 37 3 58 58 Calm 30.15 1021 10 16 0.00 0.00
12:35 am 00:35 Clear 52 11 37 3 58 58 Calm 30.16 1021 10 16 0.00 0.00
12:55 am 00:55 Clear 50 10 37 3 62 62 Calm 30.16 1021 10 16 0.00 0.00
1:15 am 01:15 Clear 50 10 39 4 67 67 Calm 30.16 1021 10 16 0.00 0.00
1:35 am 01:35 Clear 48 9 39 4 71 71 Calm 30.16 1021 10 16 0.00 0.00
1:55 am 01:55 Clear 48 9 39 4 71 71 Calm 30.16 1021 10 16 0.00 0.00
2:15 am 02:15 Clear 48 9 39 4 71 71 Calm 30.16 1021 10 16 0.00 0.00
2:35 am 02:35 Clear 46 8 39 4 76 76 Calm 30.17 1022 10 16 0.00 0.00
2:55 am 02:55 Clear 46 8 39 4 76 76 Calm 30.16 1021 10 16 0.00 0.00
3:15 am 03:15 Clear 45 7 39 4 81 81 Calm 30.16 1021 10 16 0.00 0.00
3:35 am 03:35 Clear 43 6 41 5 93 93 Calm 30.17 1022 10 16 0.00 0.00
3:55 am 03:55 Clear 43 6 41 5 93 93 Calm 30.16 1021 10 16 0.00 0.00
4:15 am 04:15 Clear 43 6 41 5 93 93 Calm 30.16 1021 10 16 0.00 0.00
4:35 am 04:35 Clear 43 6 41 5 93 93 Calm 30.16 1021 10 16 0.00 0.00
4:55 am 04:55 Clear 41 5 39 4 93 93 Calm 30.17 1022 10 16 0.00 0.00
5:15 am 05:15 Clear 41 5 39 4 93 93 Calm 30.17 1022 10 16 0.00 0.00
5:35 am 05:35 Clear 41 5 39 4 93 93 Calm 30.18 1022 10 16 0.00 0.00
5:55 am 05:55 Clear 41 5 39 4 93 93 Calm 30.18 1022 10 16 0.00 0.00
6:15 am 06:15 Clear 41 5 39 4 93 93 Calm 30.19 1022 10 16 0.00 0.00
6:35 am 06:35 Clear 41 5 39 4 93 93 Calm 30.20 1023 10 16 0.00 0.00
6:55 am 06:55 Clear 41 5 37 3 87 87 Calm 30.21 1023 10 16 0.00 0.00
7:15 am 07:15 Sunny 41 5 39 4 93 93 Calm 30.22 1024 10 16 0.00 0.00
7:35 am 07:35 Sunny 41 5 39 4 93 93 Calm 30.23 1024 10 16 0.00 0.00
7:55 am 07:55 Sunny 41 5 39 4 93 93 Calm 30.24 1024 10 16 0.00 0.00
8:15 am 08:15 Sunny 43 6 39 4 87 87 E 3 6 30.24 1024 10 16 0.00 0.00
8:35 am 08:35 Sunny 45 7 41 5 87 87 ENE 5 7 30.24 1024 10 16 0.00 0.00
8:55 am 08:55 Sunny 46 8 41 5 82 82 E 3 6 30.24 1024 10 16 0.00 0.00
9:15 am 09:15 Sunny 48 9 43 6 82 82 ENE 5 7 30.23 1024 10 16 0.00 0.00
9:35 am 09:35 Sunny 52 11 43 6 72 72 ENE 3 6 30.23 1024 10 16 0.00 0.00
9:55 am 09:55 Sunny 55 13 43 6 63 63 VRB 3 6 30.22 1023 10 16 0.00 0.00
10:15 am 10:15 Sunny 59 15 41 5 51 51 E 6 9 30.22 1023 10 16 0.00 0.00
10:35 am 10:35 Sunny 63 17 39 4 42 42 VRB 7 11 30.21 1023 10 16 0.00 0.00
10:55 am 10:55 Sunny 66 19 32 0 28 28 VRB 7 11 30.20 1023 10 16 0.00 0.00
11:15 am 11:15 Sunny 68 20 30 -1 24 24 ESE 12 19 30.20 1023 10 16 0.00 0.00
11:35 am 11:35 Sunny 68 20 28 -2 23 23 E 12 19 30.20 1023 10 16 0.00 0.00
11:55 am 11:55 Sunny 68 20 28 -2 23 23 E 12 19 30.19 1022 10 16 0.00 0.00
12:15 pm 12:15 Sunny 70 21 28 -2 21 21 ESE 9 15 30.19 1022 10 16 0.00 0.00
12:35 pm 12:35 Sunny 72 22 25 -4 17 17 E 10 17 30.18 1022 10 16 0.00 0.00
12:55 pm 12:55 Sunny 73 23 28 -2 19 19 ESE 8 13 30.16 1021 10 16 0.00 0.00
1:15 pm 13:15 Sunny 73 23 28 -2 19 19 VRB 6 9 30.15 1021 10 16 0.00 0.00
1:35 pm 13:35 Sunny 73 23 28 -2 19 19 ESE 8 13 30.14 1021 10 16 0.00 0.00
1:55 pm 13:55 Sunny 75 24 27 -3 16 16 S 7 11 30.13 1020 10 16 0.00 0.00
2:15 pm 14:15 Sunny 75 24 28 -2 18 18 SE 8 13 30.12 1020 10 16 0.00 0.00
2:35 pm 14:35 Sunny 75 24 28 -2 18 18 ESE 10 17 30.11 1020 10 16 0.00 0.00
2:55 pm 14:55 Sunny 77 25 28 -2 17 17 SE 9 15 30.11 1020 10 16 0.00 0.00
3:15 pm 15:15 Sunny 77 25 30 -1 18 18 SSE 7 11 30.09 1019 10 16 0.00 0.00
3:35 pm 15:35 Sunny 77 25 30 -1 18 18 SE 10 17 30.09 1019 10 16 0.00 0.00
3:55 pm 15:55 Sunny 77 25 28 -2 17 17 SE 10 17 30.07 1018 10 16 0.00 0.00
4:15 pm 16:15 Sunny 77 25 30 -1 18 18 ESE 9 15 30.07 1018 10 16 0.00 0.00
4:35 pm 16:35 Sunny 79 26 28 -2 16 16 VRB 6 9 30.06 1018 10 16 0.00 0.00
4:55 pm 16:55 Sunny 79 26 30 -1 17 17 SE 10 17 30.06 1018 10 16 0.00 0.00
5:15 pm 17:15 Sunny 79 26 30 -1 17 17 S 10 17 30.05 1017 10 16 0.00 0.00
5:35 pm 17:35 Sunny 79 26 30 -1 17 17 S 13 20 30.03 1017 10 16 0.00 0.00
5:55 pm 17:55 Sunny 79 26 32 0 18 18 SE 10 17 30.04 1017 10 16 0.00 0.00
6:15 pm 18:15 Sunny 77 25 32 0 19 19 SE 7 11 30.04 1017 10 16 0.00 0.00
6:35 pm 18:35 Sunny 79 26 32 0 18 18 VRB 5 7 30.04 1017 10 16 0.00 0.00
6:55 pm 18:55 Sunny 77 25 32 0 19 19 SSE 7 11 30.03 1017 10 16 0.00 0.00
7:15 pm 19:15 Sunny 75 24 32 0 21 21 SSE 6 9 30.03 1017 10 16 0.00 0.00
7:35 pm 19:35 Sunny 73 23 34 1 23 23 SE 5 7 30.03 1017 10 16 0.00 0.00
7:55 pm 19:55 Sunny 73 23 34 1 23 23 ESE 3 6 30.03 1017 10 16 0.00 0.00
8:15 pm 20:15 Clear 72 22 34 1 25 25 Calm 30.04 1017 10 16 0.00 0.00
8:35 pm 20:35 Clear 68 20 36 2 30 30 Calm 30.04 1017 10 16 0.00 0.00
8:55 pm 20:55 Clear 68 20 36 2 30 30 SE 3 6 30.05 1018 10 16 0.00 0.00
9:15 pm 21:15 Clear 66 19 36 2 32 32 SE 5 7 30.06 1018 10 16 0.00 0.00
9:35 pm 21:35 Clear 66 19 36 2 32 32 SE 6 9 30.07 1018 10 16 0.00 0.00
9:55 pm 21:55 Clear 64 18 39 4 40 40 Calm 30.07 1018 10 16 0.00 0.00
10:15 pm 22:15 Clear 64 18 37 3 37 37 SE 5 7 30.07 1018 10 16 0.00 0.00
10:35 pm 22:35 Clear 64 18 39 4 40 40 VRB 6 9 30.07 1018 10 16 0.00 0.00
10:55 pm 22:55 Clear 64 18 39 4 40 40 ESE 7 11 30.06 1018 10 16 0.00 0.00
11:15 pm 23:15 Clear 63 17 41 5 45 45 E 5 7 30.06 1018 10 16 0.00 0.00
11:35 pm 23:35 Clear 63 17 41 5 45 45 Calm 30.06 1018 10 16 0.00 0.00
11:55 pm 23:55 Clear 61 16 45 7 55 55 Calm 30.07 1018 10 16 0.00 0.00

Powered by AerisWeather